Regional Weather Roundup
Issued by NWS Portland, ME

Home | Current Version | Previous Version | Text Only | Print | Product List | Glossary On
Versions: 1 2 3 4 5 6 7 8 9 10 11 12 13 14 15 16 17 18 19 20 21 22 23 24 25 26 27 28 29 30 31 32 33 34 35 36 37 38 39 40 41 42 43 44 45 46 47 48
000
ASUS41 KGYX 210005
RWRGYX
WEATHER ROUNDUP FOR MAINE AND NEW HAMPSHIRE
NATIONAL WEATHER SERVICE GRAY ME
800 PM EDT WED AUG 20 2014

MEZ002-005-006-010-012-015-018-020-021-024-026-027-029-210100-
MAINE

CITY           SKY/WX    TMP DP  RH WIND       PRES   REMARKS
PORTLAND       PTCLDY    65  56  72 S5        30.05S
6HR MIN TEMP:  65; 6HR MAX TEMP:  77;

SANFORD        CLEAR     61  54  77 CALM      30.06S
BAR HARBOR     MOCLDY    64  61  88 S5        30.04R
WISCASSET      PTCLDY    64  57  78 CALM      30.07R
6HR MIN TEMP:  64; 6HR MAX TEMP:  78;

ROCKLAND       MOCLDY    64  57  77 SW6       30.04R
FRYEBURG       CLEAR     65  58  78 CALM      30.05R
6HR MIN TEMP:  65; 6HR MAX TEMP:  80;

LEWISTONAUBURN PTCLDY    66  55  68 SE6       30.05S
AUGUSTA        MOCLDY    68  58  70 SW5       30.05R
6HR MIN TEMP:  68; 6HR MAX TEMP:  79;

WATERVILLE     MOCLDY    68  61  77 SW3       30.01R
BANGOR         MOCLDY    72  61  68 S6        30.03R
6HR MIN TEMP:  72; 6HR MAX TEMP:  83;

GREENVILLE       N/A     67  56  67 CALM      30.05R
6HR MIN TEMP:  66; 6HR MAX TEMP:  77;

MILLINOCKET    PTCLDY    70  62  76 CALM      30.04R
6HR MIN TEMP:  70; 6HR MAX TEMP:  83;

HOULTON        CLEAR     64  60  87 CALM      30.02R
6HR MIN TEMP:  64; 6HR MAX TEMP:  81;

PRESQUE ISLE   CLEAR     70  57  64 N5        30.03R
6HR MIN TEMP:  70; 6HR MAX TEMP:  79;

FRENCHVILLE    CLEAR     67  55  65 NE8       30.06R
6HR MIN TEMP:  67; 6HR MAX TEMP:  76;

CARIBOU        CLOUDY    73  58  59 N7        30.04R
6HR MIN TEMP:  73; 6HR MAX TEMP:  81;

$$

NHZ002-005-008-009-011-012-014-210100-
NEW HAMPSHIRE

CITY           SKY/WX    TMP DP  RH WIND       PRES   REMARKS
PORTSMOUTH     PTCLDY    64  59  82 E2        30.04R
ROCHESTER      CLEAR     67  56  67 CALM      30.05R
6HR MIN TEMP:  66; 6HR MAX TEMP:  79;

NASHUA         CLEAR     72  52  49 SE3       30.05R
MANCHESTER     PTCLDY    71  54  54 CALM      30.03R
6HR MIN TEMP:  71; 6HR MAX TEMP:  82;

CONCORD        CLEAR     68  57  68 SE5       30.04R
6HR MIN TEMP:  68; 6HR MAX TEMP:  81;

LACONIA        CLEAR     70  59  68 CALM      30.03R
PLYMOUTH       FAIR      65  64  98 CALM      30.04R
BERLIN         PTCLDY    64  61  90 CALM      30.06R
6HR MIN TEMP:  64; 6HR MAX TEMP:  81;

WHITEFIELD     PTCLDY    67  63  87 CALM      30.04R
6HR MIN TEMP:  67; 6HR MAX TEMP:  80;

JAFFREY        PTCLDY    69  59  70 SE3       30.07R
6HR MIN TEMP:  69; 6HR MAX TEMP:  79;

LEBANON        CLOUDY    71  60  68 CALM      30.02R
6HR MIN TEMP:  69; 6HR MAX TEMP:  83;

MT WASHINGTON  MOCLDY    50  46  87 N5          N/A
                   6HR MAX TEMP:  59;

$$

VTZ005-007-008-210100-
VERMONT

CITY           SKY/WX    TMP DP  RH WIND       PRES   REMARKS
ST JOHNSBURY     N/A     69  62  78 MISG      30.01R
MONTPELIER     PTCLDY    66  60  81 S3        30.07R
BURLINGTON     MOCLDY    75  59  57 E6        29.98R
$$

MAZ007-012-024-CTZ003-RIZ002-NYZ038-NYZ072-210100-
SOUTHERN NEW ENGLAND AND NY

CITY           SKY/WX    TMP DP  RH WIND       PRES   REMARKS
BOSTON         MOCLDY    65  61  87 E6        30.04S
WORCESTER      CLEAR     70  54  56 E6        30.06R
NANTUCKET      CLEAR     63  58  83 NE7       30.03R
PROVIDENCE     PTCLDY    68  59  73 S6        30.04R
HARTFORD       PTCLDY    77  61  57 S9        29.99R
ALBANY         MOCLDY    79  65  62 SE3       29.97R
NEW YORK CITY  PTCLDY    75  59  57 S8        30.00R
$$

ANZ081-ANZ082-ANZ150-NHZ014-MEZ023>029-210100-
COASTAL MARINE OBSERVATIONS

STATION/POSITION TIME  TEMP    WIND        PRES    WAVE
                       AIR SEA DIR/SP/G            HT/PER
                 (UTC) (F)     (DEG/KT/KT) (MB)    (FT/S)
MATINICUS ROCK   2300          240/ 10/ 10 1016.8R
PORTLAND WX BUOY 2350   65 65  230/  6/  6 1017.4R   1/ 6
WELLS            2300   67 62  180/  5/  7 1016.6F
ISLE OF SHOALS   2300   66     160/  4/  5 1016.9F
JEFFREYS LEDGE   2321      67                N/A     1/ 7
CASHES LEDGE BUO 2350   67 68              1017.0R   1/ 6
$$

.............KEY..............
   WCI - WIND CHILL
   TC  - TEMPERATURE IN CELSIUS
   VSB - VISIBILITY IN MILES
   HX  - HEAT INDEX
   FAIR- INDICATES FEW OR NO CLOUDS BELOW 12,000 FT, WITH NO
         SIGNIFICANT WEATHER AND/OR OBSTRUCTIONS TO VISIBILITY.




USA.gov is the U.S. government's official web portal to all federal, state and local government web resources and services.